Time,TemperatureF,DewpointF,PressureIn,WindDirection,WindDirectionDegrees,WindSpeedMPH,WindSpeedGustMPH,Humidity,HourlyPrecipIn,Conditions,Clouds,dailyrainin,SoftwareType,DateUTC
2015-01-30 00:04:00,33.7,29.7,30.22,West,281,0.0,5.0,85,0.00,,,0.00,VWS V15.00,2015-01-30 05:04:00,
2015-01-30 00:09:00,33.7,29.7,30.22,WNW,297,0.0,0.0,85,0.00,,,0.00,VWS V15.00,2015-01-30 05:09:00,
2015-01-30 00:14:00,33.7,29.4,30.22,NW,305,5.0,10.0,84,0.00,,,0.00,VWS V15.00,2015-01-30 05:14:00,
2015-01-30 00:19:00,33.7,29.1,30.22,NW,315,0.0,0.0,83,0.00,,,0.00,VWS V15.00,2015-01-30 05:19:00,
2015-01-30 00:24:00,33.8,29.5,30.22,WNW,288,0.0,4.0,84,0.00,,,0.00,VWS V15.00,2015-01-30 05:24:00,
2015-01-30 00:29:00,33.8,29.2,30.22,WNW,302,2.0,4.0,83,0.00,,,0.00,VWS V15.00,2015-01-30 05:29:00,
2015-01-30 00:34:00,33.8,29.2,30.22,NW,317,0.0,7.0,83,0.00,,,0.00,VWS V15.00,2015-01-30 05:34:00,
2015-01-30 00:39:00,33.8,29.2,30.22,WNW,302,2.0,4.0,83,0.00,,,0.00,VWS V15.00,2015-01-30 05:39:00,
2015-01-30 00:44:00,33.7,28.8,30.22,WNW,290,3.0,6.0,82,0.00,,,0.00,VWS V15.00,2015-01-30 05:44:00,
2015-01-30 00:49:00,33.8,28.6,30.22,NW,314,2.0,3.0,81,0.00,,,0.00,VWS V15.00,2015-01-30 05:49:00,
2015-01-30 00:54:00,33.8,28.6,30.22,WNW,286,2.0,4.0,81,0.00,,,0.00,VWS V15.00,2015-01-30 05:54:00,
2015-01-30 00:59:00,33.8,28.6,30.22,WNW,298,0.0,1.0,81,0.00,,,0.00,VWS V15.00,2015-01-30 05:59:00,
2015-01-30 01:04:00,33.8,28.6,30.22,WNW,298,0.0,11.0,81,0.00,,,0.00,VWS V15.00,2015-01-30 06:04:00,
2015-01-30 01:09:00,33.8,28.9,30.23,WNW,299,0.0,3.0,82,0.00,,,0.00,VWS V15.00,2015-01-30 06:09:00,
2015-01-30 01:15:00,33.8,28.9,30.23,NW,304,3.0,6.0,82,0.00,,,0.00,VWS V15.00,2015-01-30 06:15:00,
2015-01-30 01:20:00,33.8,28.9,30.23,WNW,294,0.0,2.0,82,0.00,,,0.00,VWS V15.00,2015-01-30 06:20:00,
2015-01-30 01:25:00,33.7,28.8,30.23,West,271,4.0,8.0,82,0.00,,,0.00,VWS V15.00,2015-01-30 06:25:00,
2015-01-30 01:30:00,33.8,28.6,30.23,NW,305,2.0,5.0,81,0.00,,,0.00,VWS V15.00,2015-01-30 06:30:00,
2015-01-30 01:35:00,33.8,28.3,30.22,NNW,338,0.0,6.0,80,0.00,,,0.00,VWS V15.00,2015-01-30 06:35:00,
2015-01-30 01:40:00,33.8,28.6,30.23,NW,324,2.0,2.0,81,0.00,,,0.00,VWS V15.00,2015-01-30 06:40:00,
2015-01-30 01:45:00,33.8,28.3,30.23,North,355,0.0,8.0,80,0.00,,,0.00,VWS V15.00,2015-01-30 06:45:00,
2015-01-30 01:50:00,33.8,28.3,30.22,West,277,3.0,4.0,80,0.00,,,0.00,VWS V15.00,2015-01-30 06:50:00,
2015-01-30 01:55:00,33.8,28.3,30.23,NW,317,2.0,5.0,80,0.00,,,0.00,VWS V15.00,2015-01-30 06:55:00,
2015-01-30 02:00:00,33.8,28.3,30.23,WNW,298,0.0,0.0,80,0.00,,,0.00,VWS V15.00,2015-01-30 07:00:00,
2015-01-30 02:05:00,33.8,28.6,30.23,WNW,293,2.0,4.0,81,0.00,,,0.00,VWS V15.00,2015-01-30 07:05:00,
2015-01-30 02:10:00,33.7,28.8,30.23,WNW,282,2.0,3.0,82,0.00,,,0.00,VWS V15.00,2015-01-30 07:10:00,
2015-01-30 02:15:00,33.7,28.8,30.23,WNW,290,0.0,5.0,82,0.00,,,0.00,VWS V15.00,2015-01-30 07:15:00,
2015-01-30 02:20:00,33.6,29.0,30.24,NW,306,0.0,0.0,83,0.00,,,0.00,VWS V15.00,2015-01-30 07:20:00,
2015-01-30 02:25:00,33.6,29.3,30.24,NW,304,3.0,3.0,84,0.00,,,0.00,VWS V15.00,2015-01-30 07:25:00,
2015-01-30 02:30:00,33.5,29.2,30.24,WNW,302,0.0,1.0,84,0.00,,,0.00,VWS V15.00,2015-01-30 07:30:00,
2015-01-30 02:35:00,33.4,29.4,30.24,West,275,2.0,5.0,85,0.00,,,0.00,VWS V15.00,2015-01-30 07:35:00,
2015-01-30 02:40:00,33.3,29.3,30.24,WNW,300,2.0,4.0,85,0.00,,,0.00,VWS V15.00,2015-01-30 07:40:00,
2015-01-30 02:45:00,33.3,29.6,30.24,WSW,256,0.0,8.0,86,0.00,,,0.00,VWS V15.00,2015-01-30 07:45:00,
2015-01-30 02:50:00,33.2,29.5,30.24,West,265,0.0,2.0,86,0.00,,,0.00,VWS V15.00,2015-01-30 07:50:00,
2015-01-30 02:55:00,33.2,29.5,30.24,WNW,296,3.0,6.0,86,0.00,,,0.00,VWS V15.00,2015-01-30 07:55:00,
2015-01-30 03:00:00,33.2,29.5,30.24,WNW,298,2.0,2.0,86,0.00,,,0.00,VWS V15.00,2015-01-30 08:00:00,
2015-01-30 03:05:00,33.2,29.5,30.25,WNW,296,2.0,6.0,86,0.00,,,0.00,VWS V15.00,2015-01-30 08:05:00,
2015-01-30 03:10:00,33.3,29.6,30.25,West,279,0.0,2.0,86,0.00,,,0.00,VWS V15.00,2015-01-30 08:10:00,
2015-01-30 03:15:00,33.2,29.5,30.25,WNW,292,2.0,7.0,86,0.00,,,0.00,VWS V15.00,2015-01-30 08:15:00,
2015-01-30 03:20:00,33.2,29.5,30.25,NW,304,4.0,5.0,86,0.00,,,0.00,VWS V15.00,2015-01-30 08:20:00,
2015-01-30 03:25:00,33.2,29.5,30.25,WNW,294,0.0,5.0,86,0.00,,,0.00,VWS V15.00,2015-01-30 08:25:00,
2015-01-30 03:30:00,33.1,29.4,30.25,WNW,291,0.0,4.0,86,0.00,,,0.00,VWS V15.00,2015-01-30 08:30:00,
2015-01-30 03:35:00,33.0,29.0,30.25,WNW,292,0.0,4.0,85,0.00,,,0.00,VWS V15.00,2015-01-30 08:35:00,
2015-01-30 03:40:00,33.0,28.7,30.25,West,275,1.0,1.0,84,0.00,,,0.00,VWS V15.00,2015-01-30 08:40:00,
2015-01-30 03:45:00,33.1,28.8,30.25,WNW,290,0.0,5.0,84,0.00,,,0.00,VWS V15.00,2015-01-30 08:45:00,
2015-01-30 03:50:00,33.1,28.5,30.25,NW,309,0.0,7.0,83,0.00,,,0.00,VWS V15.00,2015-01-30 08:50:00,
2015-01-30 03:56:00,33.1,28.5,30.25,WNW,287,5.0,7.0,83,0.00,,,0.00,VWS V15.00,2015-01-30 08:56:00,
2015-01-30 04:01:00,33.1,28.5,30.26,WNW,295,0.0,5.0,83,0.00,,,0.00,VWS V15.00,2015-01-30 09:01:00,
2015-01-30 04:06:00,33.2,28.3,30.26,WNW,288,2.0,7.0,82,0.00,,,0.00,VWS V15.00,2015-01-30 09:06:00,
2015-01-30 04:11:00,33.2,28.0,30.26,North,350,1.0,5.0,81,0.00,,,0.00,VWS V15.00,2015-01-30 09:11:00,
2015-01-30 04:16:00,33.2,28.3,30.26,NW,318,4.0,10.0,82,0.00,,,0.00,VWS V15.00,2015-01-30 09:16:00,
2015-01-30 04:21:00,33.2,28.3,30.26,WNW,298,0.0,6.0,82,0.00,,,0.00,VWS V15.00,2015-01-30 09:21:00,
2015-01-30 04:26:00,33.1,28.2,30.26,WNW,284,5.0,6.0,82,0.00,,,0.00,VWS V15.00,2015-01-30 09:26:00,
2015-01-30 04:31:00,33.1,28.2,30.26,West,276,4.0,6.0,82,0.00,,,0.00,VWS V15.00,2015-01-30 09:31:00,
2015-01-30 04:36:00,33.1,27.9,30.26,WNW,282,3.0,11.0,81,0.00,,,0.00,VWS V15.00,2015-01-30 09:36:00,
2015-01-30 04:41:00,33.1,27.9,30.26,WNW,300,2.0,9.0,81,0.00,,,0.00,VWS V15.00,2015-01-30 09:41:00,
2015-01-30 04:46:00,33.1,28.2,30.26,West,270,2.0,9.0,82,0.00,,,0.00,VWS V15.00,2015-01-30 09:46:00,
2015-01-30 04:51:00,33.0,27.8,30.27,West,281,0.0,4.0,81,0.00,,,0.00,VWS V15.00,2015-01-30 09:51:00,
2015-01-30 04:56:00,33.0,27.8,30.27,WNW,300,1.0,5.0,81,0.00,,,0.00,VWS V15.00,2015-01-30 09:56:00,
2015-01-30 05:01:00,32.9,27.4,30.27,West,278,1.0,12.0,80,0.00,,,0.00,VWS V15.00,2015-01-30 10:01:00,
2015-01-30 05:06:00,32.9,27.4,30.28,WNW,282,1.0,12.0,80,0.00,,,0.00,VWS V15.00,2015-01-30 10:06:00,
2015-01-30 05:11:00,32.9,27.1,30.28,WNW,297,0.0,8.0,79,0.00,,,0.00,VWS V15.00,2015-01-30 10:11:00,
2015-01-30 05:16:00,32.9,27.1,30.28,WNW,293,3.0,8.0,79,0.00,,,0.00,VWS V15.00,2015-01-30 10:16:00,
2015-01-30 05:21:00,32.8,26.7,30.28,NW,304,6.0,7.0,78,0.00,,,0.00,VWS V15.00,2015-01-30 10:21:00,
2015-01-30 05:26:00,32.8,26.7,30.28,NW,313,0.0,8.0,78,0.00,,,0.00,VWS V15.00,2015-01-30 10:26:00,
2015-01-30 05:31:00,32.8,26.7,30.28,West,279,4.0,5.0,78,0.00,,,0.00,VWS V15.00,2015-01-30 10:31:00,
2015-01-30 05:36:00,32.8,26.4,30.28,NW,310,2.0,7.0,77,0.00,,,0.00,VWS V15.00,2015-01-30 10:36:00,
2015-01-30 05:41:00,32.7,26.3,30.28,West,281,2.0,3.0,77,0.00,,,0.00,VWS V15.00,2015-01-30 10:41:00,
2015-01-30 05:46:00,32.7,26.3,30.28,WNW,285,0.0,6.0,77,0.00,,,0.00,VWS V15.00,2015-01-30 10:46:00,
2015-01-30 05:51:00,32.7,26.3,30.29,WNW,299,0.0,6.0,77,0.00,,,0.00,VWS V15.00,2015-01-30 10:51:00,
2015-01-30 05:56:00,32.7,26.3,30.29,WNW,295,3.0,7.0,77,0.00,,,0.00,VWS V15.00,2015-01-30 10:56:00,
2015-01-30 06:01:00,32.7,26.3,30.29,WNW,303,3.0,7.0,77,0.00,,,0.00,VWS V15.00,2015-01-30 11:01:00,
2015-01-30 06:06:00,32.7,26.3,30.29,WNW,296,4.0,8.0,77,0.00,,,0.00,VWS V15.00,2015-01-30 11:06:00,
2015-01-30 06:11:00,32.6,26.5,30.30,NNW,336,2.0,8.0,78,0.00,,,0.00,VWS V15.00,2015-01-30 11:11:00,
2015-01-30 06:17:00,32.6,26.5,30.30,WNW,297,3.0,8.0,78,0.00,,,0.00,VWS V15.00,2015-01-30 11:17:00,
2015-01-30 06:22:00,32.0,27.4,30.31,NW,306,0.0,4.0,83,0.00,,,0.00,VWS V15.00,2015-01-30 11:22:00,
2015-01-30 06:27:00,31.7,27.4,30.31,NW,323,2.0,4.0,84,0.00,,,0.00,VWS V15.00,2015-01-30 11:27:00,
2015-01-30 06:32:00,31.6,27.3,30.31,NNW,344,0.0,5.0,84,0.00,,,0.00,VWS V15.00,2015-01-30 11:32:00,
2015-01-30 06:37:00,31.6,27.6,30.32,WNW,285,1.0,5.0,85,0.00,,,0.00,VWS V15.00,2015-01-30 11:37:00,
2015-01-30 06:42:00,31.5,27.5,30.32,NW,321,1.0,9.0,85,0.00,,,0.00,VWS V15.00,2015-01-30 11:42:00,
2015-01-30 06:47:00,31.5,27.5,30.33,NNW,344,3.0,9.0,85,0.00,,,0.00,VWS V15.00,2015-01-30 11:47:00,
2015-01-30 06:52:00,31.3,27.3,30.33,NNW,343,5.0,11.0,85,0.00,,,0.00,VWS V15.00,2015-01-30 11:52:00,
2015-01-30 06:57:00,31.3,27.3,30.33,NW,326,3.0,11.0,85,0.00,,,0.00,VWS V15.00,2015-01-30 11:57:00,
2015-01-30 07:02:00,30.9,26.6,30.33,NE,38,5.0,10.0,84,0.00,,,0.00,VWS V15.00,2015-01-30 12:02:00,
2015-01-30 07:07:00,30.4,25.9,30.34,North,5,6.0,12.0,83,0.00,,,0.00,VWS V15.00,2015-01-30 12:07:00,
2015-01-30 07:12:00,30.0,25.2,30.34,NW,315,9.0,12.0,82,0.00,,,0.00,VWS V15.00,2015-01-30 12:12:00,
2015-01-30 07:17:00,29.7,23.7,30.34,North,360,15.0,16.0,78,0.00,,,0.00,VWS V15.00,2015-01-30 12:17:00,
2015-01-30 07:22:00,29.4,22.5,30.35,NNW,338,12.0,15.0,75,0.00,,,0.00,VWS V15.00,2015-01-30 12:22:00,
2015-01-30 07:27:00,29.3,21.1,30.36,NNW,344,4.0,17.0,71,0.00,,,0.00,VWS V15.00,2015-01-30 12:27:00,
2015-01-30 07:32:00,29.2,21.0,30.36,North,5,6.0,12.0,71,0.00,,,0.00,VWS V15.00,2015-01-30 12:32:00,
2015-01-30 07:37:00,29.1,19.9,30.37,NW,310,4.0,18.0,68,0.00,,,0.00,VWS V15.00,2015-01-30 12:37:00,
2015-01-30 07:42:00,29.0,19.8,30.37,NNW,342,4.0,13.0,68,0.00,,,0.00,VWS V15.00,2015-01-30 12:42:00,
2015-01-30 07:47:00,28.9,19.7,30.37,NNW,336,5.0,13.0,68,0.00,,,0.00,VWS V15.00,2015-01-30 12:47:00,
2015-01-30 07:52:00,28.9,19.3,30.38,NNW,336,5.0,14.0,67,0.00,,,0.00,VWS V15.00,2015-01-30 12:52:00,
2015-01-30 07:57:00,28.8,18.9,30.37,NNW,329,7.0,16.0,66,0.00,,,0.00,VWS V15.00,2015-01-30 12:57:00,
2015-01-30 08:02:00,28.7,18.8,30.38,North,360,5.0,13.0,66,0.00,,,0.00,VWS V15.00,2015-01-30 13:02:00,
2015-01-30 08:07:00,28.6,18.7,30.38,NW,317,5.0,13.0,66,0.00,,,0.00,VWS V15.00,2015-01-30 13:07:00,
2015-01-30 08:12:00,28.5,18.2,30.39,NNW,348,4.0,14.0,65,0.00,,,0.00,VWS V15.00,2015-01-30 13:12:00,
2015-01-30 08:17:00,28.4,18.1,30.39,North,355,14.0,17.0,65,0.00,,,0.00,VWS V15.00,2015-01-30 13:17:00,
2015-01-30 08:22:00,28.2,18.0,30.39,NW,309,0.0,9.0,65,0.00,,,0.00,VWS V15.00,2015-01-30 13:22:00,
2015-01-30 08:27:00,28.0,18.1,30.40,NW,319,0.0,11.0,66,0.00,,,0.00,VWS V15.00,2015-01-30 13:27:00,